Vorticity
5 4 4 4 5 6 7 8 9 9 10 10 10 10 10 9 9 8 7 7 7 6 6 6 6 5 5 5 5 5 5 5 5 5 5 5 5 6 6 6 6 6 6 6 6 6 6 6 6 6 6 6 6 6 6 6 6 6 6 7 7 7 7 7 7 7 7 7 7 6 6 6 6 6 6 5 5 5 6 6 6 5 5 5 5 5 5 6 6 6 6 6 6 6 6 7 8 9 8 7 6 6 6
6 5 5 4 4 4 5 6 6 7 8 9 9 10 10 10 9 9 9 8 8 7 7 7 7 6 6 6 6 6 6 6 6 6 6 6 6 6 6 6 6 6 6 6 6 6 6 6 6 6 6 6 7 7 7 7 7 7 7 7 7 7 7 7 7 7 8 8 8 7 7 7 7 6 6 6 6 6 6 6 6 6 6 6 6 6 6 4 5 7 7 7 7 7 7 8 9 9 9 7 7 7 6
5 6 6 5 4 4 3 3 4 5 6 7 7 8 8 9 9 9 9 9 8 8 8 8 8 8 8 8 8 8 8 8 7 7 7 7 7 7 7 7 7 7 7 7 7 7 6 6 6 6 6 7 7 7 7 7 7 7 7 7 7 7 7 7 7 8 8 8 8 8 8 8 7 7 7 7 7 7 6 6 6 6 6 6 6 6 6 9 8 8 8 7 7 6 6 6 6 7 7 6 6 7 7
3 4 5 5 5 4 4 3 3 3 3 4 5 5 6 7 7 7 8 8 8 8 8 8 8 8 8 8 8 8 8 8 8 8 8 8 8 8 8 8 8 8 8 7 7 7 7 7 7 7 7 7 7 7 7 7 7 7 7 7 7 7 7 7 8 8 8 8 8 8 8 8 7 7 7 8 8 7 7 6 6 6 6 7 7 7 6 7 8 8 8 7 7 7 7 7 7 7 7 6 6 7 7
2 3 3 4 5 5 5 4 3 2 2 2 2 3 3 4 4 5 5 6 6 6 7 7 7 7 7 8 8 8 8 8 8 8 8 8 8 8 8 8 8 8 8 8 8 8 8 8 8 7 7 7 7 7 8 7 7 7 7 7 7 7 7 7 7 8 8 8 8 8 8 8 8 7 7 8 8 8 7 7 6 7 7 7 7 7 7 7 8 8 8 8 8 7 7 8 8 8 8 8 8 7 7
0 2 2 3 3 4 4 4 4 3 3 2 2 2 2 2 2 2 3 3 4 4 5 5 5 5 6 6 6 6 6 6 6 7 7 7 7 7 7 7 7 7 7 7 8 8 8 8 8 8 8 8 8 8 8 7 7 7 7 7 7 7 7 7 7 7 7 8 8 8 8 7 7 7 7 7 8 8 7 7 7 7 7 8 8 7 7 7 8 9 9 9 8 8 8 7 8 8 8 8 8 9 9
1 1 1 2 1 2 4 3 3 3 3 3 2 2 2 2 2 2 2 2 2 2 3 3 3 3 4 4 4 4 4 4 4 4 4 4 4 4 5 5 5 5 5 6 6 6 7 7 7 7 8 8 8 8 8 7 7 7 7 7 7 7 7 7 7 7 7 7 7 7 7 7 7 6 6 7 7 7 7 7 7 7 8 8 7 7 7 8 8 9 9 9 8 8 8 8 7 7 7 7 8 9 10
3 1 2 1 1 2 3 3 3 3 3 3 3 3 2 2 2 2 2 2 2 2 2 2 2 2 2 2 2 2 2 2 2 2 2 3 3 3 3 3 3 4 4 4 4 5 5 5 6 6 7 7 7 7 7 7 7 7 7 7 7 7 7 7 7 7 7 7 7 7 6 6 6 6 6 6 6 6 7 7 7 7 7 7 7 7 7 7 8 8 8 8 8 8 8 8 8 8 7 7 7 8 9
3 2 2 1 1 2 1 3 3 3 2 2 2 3 3 2 3 3 2 2 2 2 2 2 2 1 1 1 1 1 1 1 1 1 1 1 1 2 2 2 2 3 3 3 4 4 4 4 4 5 5 6 6 6 7 7 7 7 7 7 7 7 7 7 7 7 7 7 7 7 6 6 6 6 6 6 6 6 6 7 7 7 7 7 7 6 7 7 7 7 8 8 8 8 9 9 9 9 8 8 8 8 9
3 3 2 2 2 1 -0 3 4 3 3 2 2 2 3 3 3 3 3 3 2 2 2 2 2 2 1 1 1 1 1 1 0 0 0 0 1 1 1 1 2 2 3 3 3 4 4 4 4 4 5 5 5 6 6 6 6 7 7 7 7 7 7 7 7 7 7 7 7 7 7 7 7 7 6 6 6 6 6 7 7 7 7 6 6 7 7 7 7 7 7 7 8 8 9 9 9 9 10 9 9 9 10
4 2 2 2 2 1 -0 3 4 4 3 2 2 2 2 3 4 4 4 4 3 2 2 2 2 2 2 2 1 1 1 1 1 0 0 0 0 0 0 1 1 1 2 2 3 3 4 4 4 4 5 4 5 5 5 6 6 6 6 6 7 7 7 7 7 7 7 7 7 7 7 7 7 7 7 7 7 7 7 7 7 7 7 7 7 7 7 7 7 7 7 7 8 8 9 9 9 10 10 11 11 11 11
3 3 3 2 2 1 1 3 4 4 4 3 2 1 2 3 4 4 5 5 4 4 3 3 2 2 2 2 1 1 1 1 1 1 1 0 0 1 1 1 1 1 1 2 2 3 3 4 4 4 5 5 5 5 5 5 6 6 6 6 6 6 6 7 7 7 7 7 7 7 7 7 8 8 7 7 7 7 7 8 8 8 7 8 8 8 7 7 7 7 7 8 8 8 9 9 10 10 11 11 12 12 12
4 4 4 2 3 3 2 3 4 4 5 4 3 1 1 2 3 4 5 6 5 5 4 4 3 3 3 2 2 1 1 1 1 1 1 1 1 1 1 1 1 1 1 1 2 2 3 3 4 5 5 5 5 5 5 5 5 6 6 6 6 6 6 6 6 6 7 7 7 7 7 7 8 8 8 7 7 7 8 8 8 8 8 8 8 8 8 8 8 8 8 8 8 9 9 10 10 11 11 12 12 12 12
4 4 4 4 3 3 3 3 3 4 5 5 3 2 1 1 2 3 5 5 5 5 5 4 4 4 3 3 3 2 2 2 1 1 1 1 1 1 1 1 2 2 2 2 2 2 2 3 4 4 5 5 5 6 6 6 6 6 6 6 6 6 6 6 6 6 7 7 7 7 7 7 8 8 8 8 8 8 8 8 8 8 8 8 9 9 8 8 8 9 9 9 9 10 10 10 11 11 11 11 12 12 11
4 4 4 4 4 4 3 3 3 4 5 5 4 2 1 1 2 3 4 5 5 5 4 4 4 4 3 3 3 3 3 3 2 2 2 2 1 1 1 1 1 2 2 2 2 2 2 2 3 4 4 5 6 6 6 6 6 6 6 6 6 6 6 6 6 6 7 7 7 7 7 7 8 8 8 8 8 8 8 8 8 8 9 9 9 9 9 9 9 9 10 10 10 10 11 11 11 10 10 10 10 10 10
4 4 4 4 4 4 4 4 4 4 5 5 4 2 1 2 2 2 3 5 5 5 4 4 3 3 3 3 3 3 3 3 3 3 3 2 2 2 1 1 1 1 1 2 2 2 2 2 2 3 4 4 5 6 7 7 7 6 6 6 6 6 6 6 6 7 7 7 7 8 8 8 8 8 8 8 8 8 8 9 9 9 9 9 9 9 9 10 10 11 11 11 11 11 11 10 10 10 10 10 10 9 9
4 4 4 4 4 4 4 4 4 4 4 4 4 3 2 2 2 2 3 4 5 4 4 3 3 3 3 3 3 3 3 4 4 4 4 3 3 2 2 1 1 1 1 1 1 2 2 2 2 3 3 4 5 6 7 7 7 7 7 6 6 6 7 7 7 7 7 7 8 8 8 8 9 9 9 9 9 9 9 9 9 10 10 9 9 10 10 10 11 11 11 11 11 11 11 10 10 9 9 9 9 9 9
3 4 4 4 4 4 4 4 4 4 4 4 4 3 2 2 2 2 3 4 4 4 4 3 3 3 3 2 3 3 3 3 4 4 4 4 4 3 3 2 1 1 1 1 1 1 2 2 2 3 3 4 5 6 7 8 8 7 7 7 7 7 7 7 7 8 8 8 8 8 9 9 9 9 9 9 9 9 9 10 10 10 10 10 10 10 10 10 11 11 11 11 11 11 10 10 9 9 8 8 8 8 8
3 3 4 4 4 4 5 4 4 4 4 4 4 4 3 2 1 2 3 4 4 4 4 4 3 3 3 3 2 2 3 3 3 4 5 5 5 5 4 3 3 2 1 1 1 1 1 2 2 3 3 4 5 6 7 8 8 8 7 7 7 7 7 7 7 8 8 8 8 8 9 9 9 9 9 9 10 10 10 10 10 10 10 10 10 10 10 10 10 10 11 10 10 10 9 9 8 8 8 8 7 7 7
3 3 3 4 4 4 5 5 4 4 4 4 5 5 4 2 1 2 3 4 4 4 4 3 3 3 3 3 2 2 2 2 2 3 4 5 6 6 6 5 4 3 2 1 1 1 1 2 2 3 3 4 5 7 7 8 8 8 7 7 7 7 7 7 7 8 8 8 8 8 9 9 9 9 9 10 10 10 10 10 10 10 10 10 10 10 10 10 10 10 9 9 9 8 8 8 7 7 7 7 7 6 6
2 2 3 3 4 4 5 5 5 4 4 4 5 5 5 3 2 2 2 4 4 4 4 4 3 3 3 3 2 1 1 1 1 2 3 4 5 6 7 6 6 4 3 2 2 1 1 2 2 3 4 5 6 7 8 9 9 8 8 7 7 7 8 8 7 7 7 8 8 8 9 9 9 9 9 10 10 10 10 10 10 10 10 10 10 9 9 9 9 9 8 8 8 7 7 7 7 7 6 6 6 6 6
2 2 2 3 3 4 5 5 5 5 4 4 5 5 5 4 3 2 2 3 4 4 4 4 4 3 3 3 2 1 -0 -0 0 1 2 3 4 5 6 6 6 5 4 3 2 2 2 2 3 3 4 5 6 8 9 9 9 9 8 8 7 7 7 7 7 7 7 8 8 8 8 9 9 9 9 9 9 9 9 9 9 9 9 9 9 9 9 8 8 8 7 7 6 6 6 6 6 6 6 6 6 6 6
3 3 3 3 3 4 5 5 5 5 5 4 5 5 6 5 4 3 2 3 4 4 4 4 4 4 4 3 2 1 -1 -1 -1 -1 0 2 3 4 6 6 6 5 4 4 3 2 2 3 3 4 5 6 7 8 9 9 9 9 8 8 8 7 7 7 7 7 7 7 8 8 8 8 8 8 9 9 9 9 9 9 8 8 8 8 8 8 8 8 8 7 7 6 6 6 5 5 5 6 6 6 6 6 6
3 3 3 3 3 3 4 5 5 6 5 5 5 5 6 5 4 3 3 3 4 4 4 4 4 4 4 4 3 2 -0 -1 -1 -1 -1 1 2 4 5 6 6 5 5 4 4 3 3 4 4 5 6 7 8 9 10 10 10 9 9 8 8 8 8 7 7 7 7 7 7 7 7 8 8 8 8 8 8 8 8 8 8 8 8 7 7 7 8 8 7 7 7 6 6 6 5 5 5 5 5 5 6 6 6
3 3 4 3 3 3 4 4 5 6 6 5 5 5 6 6 5 4 3 3 4 5 5 4 4 4 4 5 4 3 1 -0 -1 -1 -1 0 2 3 4 5 6 5 5 5 4 4 4 5 5 6 7 8 9 9 10 10 10 9 9 8 8 8 7 7 7 7 7 7 7 7 7 7 7 7 7 8 8 8 8 8 8 8 8 7 7 7 7 7 7 7 7 7 6 6 6 5 5 5 5 5 5 5 5
4 4 4 4 4 3 4 4 5 5 6 5 5 5 6 6 5 4 3 3 4 4 5 5 5 5 5 5 4 3 2 0 -0 -1 0 1 2 3 4 5 5 6 6 5 5 5 5 6 6 7 7 9 9 10 10 10 10 9 9 8 8 7 7 7 7 7 7 7 7 7 7 7 7 7 7 7 7 7 8 8 8 8 8 8 7 7 7 7 7 7 7 7 6 6 6 6 6 6 5 5 5 5 5
4 4 5 4 4 4 4 4 4 5 6 6 6 6 6 6 6 5 4 3 3 4 4 4 4 5 5 5 5 4 2 1 0 0 0 1 2 3 4 5 6 6 6 6 6 6 7 7 7 8 8 9 10 10 11 10 10 9 9 8 8 7 7 7 6 6 6 6 6 6 6 6 7 7 7 7 7 7 7 8 8 8 8 8 8 8 8 7 7 7 7 7 7 7 6 6 6 6 6 6 5 5 5
5 5 5 5 4 4 4 4 4 4 5 6 6 6 6 6 6 5 4 3 3 3 3 3 3 4 4 5 4 3 2 2 1 1 1 1 2 3 4 5 6 6 7 7 7 7 8 8 8 8 9 9 10 10 11 10 10 9 8 8 8 7 7 7 6 6 6 6 6 6 6 6 6 7 7 7 7 7 7 8 8 8 8 8 8 8 8 8 8 8 8 8 7 7 7 7 7 7 7 6 6 6 6
5 5 5 4 4 4 5 4 4 4 5 5 6 6 7 7 6 6 5 4 3 3 3 3 3 3 4 4 4 3 3 2 1 1 1 2 2 3 4 6 6 7 7 8 8 8 8 8 8 9 9 10 10 11 11 11 10 9 8 8 7 7 7 7 6 6 6 6 6 6 6 6 6 6 6 6 7 7 7 7 7 8 8 8 8 8 8 8 8 8 8 8 8 8 8 8 8 8 8 8 8 8 7
5 5 4 4 4 4 5 5 5 4 4 5 5 6 7 7 7 6 5 4 3 3 3 2 2 3 3 3 3 3 3 2 1 1 1 2 3 4 6 7 7 8 8 8 8 9 9 9 9 9 9 10 10 11 11 11 10 9 8 8 7 7 7 6 6 6 6 6 6 6 6 6 6 6 6 6 6 6 7 7 7 7 7 7 7 7 7 7 8 8 8 8 8 8 8 9 9 9 9 9 9 9 9
5 5 4 3 3 4 5 6 5 5 4 4 5 6 7 7 7 7 6 5 4 3 3 3 3 3 4 4 4 3 2 2 2 2 2 3 4 6 7 8 8 8 9 9 9 9 9 9 9 9 9 10 10 11 11 11 10 9 8 8 7 7 7 6 6 6 6 6 6 6 5 5 6 6 5 6 6 6 6 6 6 6 6 6 6 6 6 6 7 7 7 7 8 8 8 8 9 9 9 9 9 10 10
5 4 3 3 3 4 5 6 6 5 4 4 4 5 6 7 7 7 7 6 4 4 3 3 3 4 4 4 4 3 2 2 2 2 3 4 5 7 8 8 9 9 9 9 9 9 9 9 9 9 9 10 11 11 11 11 10 9 8 8 7 7 7 6 6 6 6 5 5 5 5 5 5 6 6 6 6 6 6 5 5 5 5 5 5 5 5 5 6 6 6 6 7 7 7 8 8 8 8 8 8 8 9
5 4 3 2 3 4 4 5 6 6 5 4 4 4 6 7 8 8 7 6 5 4 3 4 4 5 5 4 4 3 2 2 2 2 4 5 7 8 9 9 8 8 8 8 8 8 9 9 9 9 9 10 11 11 11 10 10 9 8 7 7 7 6 6 6 6 5 5 5 5 5 5 5 5 6 6 6 6 6 5 5 5 5 5 5 5 5 5 5 5 5 5 6 6 6 6 7 7 7 7 7 7 7
5 4 3 2 3 3 4 6 7 7 6 5 4 4 5 7 8 8 8 7 6 5 4 4 4 5 5 4 3 2 2 2 2 3 5 7 8 8 9 8 8 7 7 7 8 8 8 9 9 9 9 10 11 11 11 11 10 9 8 7 7 6 6 6 6 5 5 5 5 4 4 5 5 5 5 6 6 6 6 5 5 5 5 5 5 5 5 5 5 5 5 5 5 5 5 5 6 6 6 6 6 7 7
5 4 3 2 3 3 5 6 6 7 6 5 4 4 4 6 8 9 9 7 6 5 4 5 5 5 5 4 3 2 2 2 3 5 6 7 8 8 8 7 7 7 6 7 7 8 8 8 8 9 9 10 11 11 11 10 10 9 8 7 7 6 6 6 6 5 5 5 4 4 4 5 5 5 5 5 5 5 5 5 5 5 5 5 5 5 5 5 5 5 5 5 5 5 4 5 5 5 5 6 6 6 6
5 4 3 3 3 4 5 6 6 6 6 6 5 4 4 6 7 8 9 8 6 6 5 5 5 5 4 3 2 2 2 3 5 6 8 8 8 8 7 7 6 6 6 6 7 7 7 7 8 8 9 10 10 11 11 10 10 9 8 7 7 6 6 6 5 5 5 4 4 4 4 4 4 5 5 5 5 5 5 5 5 5 5 5 5 5 6 6 6 6 5 5 5 5 5 4 5 5 5 5 5 6 6
5 4 4 3 3 4 5 5 6 6 6 6 5 5 4 5 7 8 8 8 7 6 6 6 6 5 4 2 1 2 2 4 6 7 8 8 8 7 6 6 5 5 5 6 6 6 6 7 7 8 9 9 10 11 11 10 10 9 8 7 7 6 6 6 5 5 5 4 4 4 4 4 4 4 4 5 5 5 5 5 5 5 5 5 5 5 5 5 5 5 5 6 5 5 5 5 5 5 5 5 5 6 6
4 4 4 4 4 4 5 6 6 6 6 6 6 5 4 5 6 8 8 8 7 6 6 6 6 5 3 2 1 2 3 5 7 8 8 7 7 6 6 5 5 5 5 5 5 6 6 6 6 7 8 9 10 11 11 10 10 9 8 8 7 6 6 6 5 5 4 4 4 4 4 4 4 4 4 4 4 4 4 4 4 5 5 5 5 5 5 5 5 5 5 5 5 5 6 5 5 5 5 5 5 5 6
4 4 4 4 4 5 5 6 6 6 6 6 6 5 4 5 6 8 8 8 7 7 7 7 5 4 2 1 2 3 5 7 8 8 7 7 6 6 5 5 5 5 5 5 5 5 5 5 5 6 7 9 10 11 10 10 10 10 9 8 7 7 6 6 5 5 4 4 4 4 4 4 4 4 4 4 4 4 4 4 4 4 4 5 5 5 5 5 5 5 5 5 5 5 5 5 5 5 5 5 5 5 5
4 4 4 4 5 5 5 6 6 6 6 6 6 6 4 5 6 7 8 8 7 7 7 6 5 3 2 2 3 4 6 7 8 8 7 6 6 5 5 5 4 4 5 5 5 5 5 5 5 6 6 8 9 10 10 11 10 10 9 8 7 7 6 6 5 5 4 4 4 4 4 4 4 4 4 4 4 4 4 4 4 4 4 4 4 4 4 4 4 4 4 4 4 5 5 5 5 5 5 5 5 5 5
4 4 4 5 5 5 5 6 6 6 7 7 7 6 5 5 6 7 8 8 7 7 7 6 4 1 1 2 3 5 6 7 7 7 6 6 5 5 4 4 4 4 5 5 5 5 5 5 5 5 6 7 8 9 10 10 10 10 9 9 8 7 6 6 5 5 4 4 4 4 4 4 4 4 4 4 4 4 4 4 4 4 4 4 4 4 4 4 4 4 4 4 4 5 5 5 5 5 5 5 4 4 4
5 5 5 5 5 5 5 6 6 7 7 7 7 6 5 5 6 7 8 8 8 8 7 5 3 1 0 2 4 6 6 7 7 6 5 5 5 4 4 4 4 4 5 5 5 5 5 5 5 5 6 6 8 9 10 10 10 10 10 9 8 7 7 6 5 5 4 4 4 4 4 4 4 4 4 4 4 4 4 4 4 4 4 4 4 4 4 4 4 4 4 5 5 5 5 5 5 5 5 5 5 4 4
5 6 6 6 6 6 6 6 6 7 7 8 7 7 6 6 6 7 8 8 8 8 7 4 3 2 2 3 5 6 7 7 6 5 5 4 4 4 4 4 4 4 5 5 5 5 5 5 5 5 5 6 8 9 9 9 10 10 10 9 8 7 7 6 6 5 5 4 4 4 4 4 3 3 3 3 3 3 3 3 3 3 3 3 3 3 3 3 4 4 4 5 5 5 6 6 6 6 5 5 5 5 5
7 6 6 6 6 6 6 6 6 7 7 8 8 7 6 6 7 7 8 9 9 8 6 4 2 2 3 5 6 7 7 6 5 4 4 4 4 3 3 4 4 4 4 5 5 5 6 6 5 5 5 7 8 8 9 9 9 9 9 9 8 8 7 7 6 5 5 4 4 4 4 3 3 3 3 3 3 3 3 3 3 3 3 3 3 3 3 3 3 4 4 5 5 5 6 6 6 6 6 6 6 6 6
7 7 6 6 6 5 5 5 6 6 7 8 8 7 7 7 7 7 8 9 9 8 5 3 2 2 4 5 6 6 6 5 4 4 3 3 3 3 3 3 3 4 4 5 5 5 6 6 6 5 6 7 8 8 8 9 9 9 8 9 9 8 8 7 6 6 5 4 4 4 3 3 3 3 3 3 3 3 3 3 3 3 3 3 3 3 3 3 3 4 4 4 5 5 5 6 6 6 6 6 6 6 6
7 7 6 6 5 5 5 5 5 6 7 7 7 7 7 7 8 8 8 8 8 7 4 2 2 3 5 6 6 6 6 5 4 3 3 3 3 3 3 3 3 3 4 4 5 5 5 6 6 6 6 7 7 8 8 8 8 8 8 9 9 8 8 8 7 6 5 4 4 3 3 3 3 3 3 3 3 3 3 3 3 3 3 3 3 3 3 3 3 3 4 4 4 4 4 5 5 5 6 6 6 6 6
6 6 6 5 5 5 5 5 5 5 6 7 7 7 8 8 8 8 8 8 7 6 4 2 1 3 4 5 6 6 5 4 4 3 3 3 3 3 3 3 3 3 3 3 4 4 5 6 6 6 7 6 7 7 8 8 8 8 8 8 8 8 9 8 8 7 6 5 4 4 3 3 3 3 3 3 3 3 3 3 3 3 3 3 3 3 3 3 3 3 3 3 3 3 3 4 4 4 4 5 5 5 5
5 5 5 5 4 4 4 4 4 5 6 6 7 7 7 8 8 8 8 8 7 5 3 1 1 2 4 5 5 5 5 4 4 3 3 3 3 3 3 2 2 2 3 3 3 4 5 5 6 6 7 6 6 7 7 7 8 8 8 7 7 8 9 9 8 8 6 5 4 4 3 3 3 3 3 3 3 3 3 3 3 3 3 3 3 3 3 3 3 3 3 2 2 2 2 2 3 3 3 4 4 4 5
5 5 5 5 4 4 4 3 4 4 5 6 6 7 7 7 7 7 7 7 6 5 3 1 1 1 3 4 5 5 5 4 4 3 3 2 2 2 2 2 2 2 3 3 3 4 4 5 6 6 7 7 7 6 7 7 7 7 7 7 7 7 8 8 8 8 7 6 5 4 4 3 3 3 3 3 3 3 3 3 3 3 3 3 3 3 2 2 2 2 2 2 1 1 1 1 2 2 2 3 3 3 4
5 6 6 5 5 4 4 3 3 4 4 5 5 6 6 6 6 6 7 6 6 5 3 2 1 2 2 3 4 5 4 4 3 3 3 3 2 2 1 2 2 1 2 3 3 3 4 5 6 7 7 7 7 6 6 6 6 7 7 7 7 7 7 8 8 8 7 7 6 5 4 4 3 3 3 3 3 3 3 3 3 3 3 3 3 3 2 2 2 1 1 1 0 0 0 1 1 1 1 2 2 3 3
5 6 6 6 6 5 4 4 3 4 4 4 5 5 6 5 5 5 6 6 6 5 3 2 1 1 2 3 3 4 4 4 3 3 3 3 4 3 1 -1 -0 0 1 2 3 5 5 6 6 7 8 8 7 7 6 6 6 6 6 7 7 7 7 7 7 7 7 7 7 6 5 4 3 3 3 3 3 3 3 3 3 3 3 3 3 2 2 2 1 1 0 -0 -0 -0 -0 -0 0 1 1 1 2 2 3
5 6 6 7 7 6 6 5 4 4 4 4 4 4 4 5 5 5 5 6 6 5 4 2 1 0 1 2 3 3 4 3 3 3 3 3 3 3 2 -1 -2 -1 -1 1 3 5 5 6 7 8 9 9 8 7 6 5 5 6 6 7 7 7 7 7 6 6 7 7 7 7 6 5 4 3 3 3 3 3 3 3 3 3 3 3 3 2 2 1 1 0 -0 -1 -1 -1 -1 -1 -0 0 1 1 2 2 3
4 5 6 7 7 8 8 6 5 4 4 4 4 4 4 4 4 4 4 5 5 5 5 3 1 -0 -0 1 2 3 3 3 3 3 4 3 2 2 2 2 1 0 -0 0 1 1 3 4 7 10 13 10 8 6 5 5 5 6 6 7 7 7 7 7 6 6 6 7 7 7 7 6 4 4 3 3 3 2 3 3 3 3 3 2 2 2 2 1 1 0 -0 -1 -1 -1 -1 -1 -0 0 1 2 2 3 3
1 3 4 6 7 8 9 8 7 5 4 4 4 5 5 4 4 4 4 5 5 5 5 4 2 1 -1 -0 0 1 2 3 3 3 4 4 3 2 2 2 1 1 1 1 -1 -2 1 5 8 10 11 9 7 5 5 6 6 6 6 6 7 7 7 7 6 6 7 7 7 7 7 6 5 4 4 3 3 2 2 2 2 2 2 2 2 2 1 1 1 0 -0 -1 -1 -1 -1 -1 -0 0 1 2 2 3 3
1 3 4 5 7 8 9 10 9 7 5 4 4 4 5 4 4 4 5 5 6 6 5 4 3 2 -0 -0 -0 1 1 2 2 3 3 4 4 4 2 1 -0 -0 -0 2 2 1 -1 4 8 9 6 7 6 6 6 7 7 6 6 6 6 7 7 7 6 6 7 7 7 7 7 6 5 5 4 4 3 3 2 2 2 2 2 2 2 2 2 1 1 0 -0 -0 -1 -1 -1 -0 0 1 1 2 2 3 3
5 6 7 7 8 9 10 11 11 9 7 5 4 4 4 4 4 5 5 6 6 6 6 6 5 3 1 0 -0 0 0 1 2 2 3 3 4 5 4 2 0 -1 -2 -0 3 5 3 4 5 6 6 7 7 6 5 6 6 6 5 6 6 7 7 7 6 6 6 6 6 7 7 6 6 6 5 4 4 3 3 2 2 2 2 2 2 2 2 1 1 1 0 -0 -0 -0 -0 0 1 1 2 2 2 3 3
7 7 8 8 9 10 11 11 11 11 9 6 4 4 5 5 5 5 5 5 6 6 7 7 6 5 4 2 1 1 0 0 1 1 2 3 3 4 5 5 4 3 1 -0 -0 0 1 4 4 3 -1 6 9 8 3 5 6 6 5 6 6 6 6 6 6 6 6 6 6 7 7 7 6 6 6 5 5 4 3 3 3 2 2 2 2 2 2 1 1 1 1 1 0 0 0 1 1 2 2 2 3 3 3
8 8 7 7 8 10 11 12 12 11 10 7 5 4 4 5 6 6 6 5 5 6 6 6 7 7 6 4 3 2 1 1 1 1 1 2 3 3 4 5 5 5 5 3 1 -2 -3 3 6 4 -5 2 8 11 6 5 6 7 7 7 6 6 6 5 5 6 6 6 7 7 7 7 7 6 6 6 6 5 4 4 4 3 3 2 2 2 2 2 2 2 1 1 1 1 1 1 2 2 2 3 3 3 2
10 9 8 6 7 9 11 12 13 12 11 9 6 3 2 3 6 8 9 8 7 7 6 6 6 6 5 5 4 3 2 1 1 1 1 1 2 3 3 4 5 5 5 3 3 2 1 3 4 3 -0 -0 1 4 10 10 8 6 6 6 6 6 5 5 5 5 6 6 7 7 7 7 7 7 6 6 6 6 5 5 4 4 3 3 2 2 2 2 2 2 2 2 2 2 2 2 2 3 3 3 3 3 2
13 12 9 7 7 7 9 11 13 13 13 11 8 4 1 2 4 7 9 9 8 7 6 7 7 6 5 5 4 3 3 3 2 1 1 1 2 3 3 4 5 5 4 3 2 2 3 4 3 2 4 1 -3 -4 3 9 10 8 6 5 6 6 5 4 4 4 5 5 6 6 6 6 7 7 7 7 6 6 6 5 5 4 4 3 3 2 2 2 2 2 2 2 2 2 3 3 3 3 4 3 3 3 3
17 15 12 9 7 7 7 9 11 13 15 13 10 7 3 2 2 3 5 5 5 5 5 7 9 9 8 6 4 3 2 3 3 2 -0 1 2 3 3 5 6 6 5 4 3 3 3 5 5 5 4 3 1 -1 -2 1 5 8 10 8 6 5 4 3 3 3 3 4 4 5 5 5 6 7 7 7 7 7 6 5 5 4 4 4 3 3 2 2 2 2 2 2 3 3 3 4 4 4 4 4 3 3 3
Height
3190 3190 3189 3189 3188 3188 3188 3187 3187 3186 3186 3186 3186 3185 3185 3185 3185 3184 3184 3184 3184 3184 3184 3184 3184 3184 3184 3184 3184 3184 3184 3183 3183 3183 3183 3183 3183 3183 3183 3183 3183 3183 3182 3182 3182 3182 3182 3182 3182 3182 3182 3182 3181 3181 3181 3181 3181 3181 3180 3180 3180 3180 3179 3179 3178 3178 3178 3177 3177 3177 3177 3176 3176 3176 3176 3176 3175 3175 3175 3175 3174 3174 3174 3174 3173 3173 3173 3173 3173 3172 3172 3172 3171 3171 3171 3171 3171 3171 3171 3171 3171 3171 3170
3191 3191 3190 3190 3189 3189 3189 3188 3188 3187 3187 3187 3186 3186 3186 3186 3186 3185 3185 3185 3185 3185 3185 3185 3185 3184 3184 3184 3184 3184 3184 3184 3184 3183 3183 3183 3183 3183 3183 3183 3183 3182 3182 3182 3182 3182 3182 3181 3181 3181 3181 3181 3181 3181 3181 3181 3180 3180 3180 3180 3179 3179 3179 3178 3178 3178 3177 3177 3176 3176 3176 3176 3176 3176 3175 3175 3175 3174 3174 3174 3174 3174 3173 3173 3173 3173 3173 3173 3173 3173 3172 3171 3171 3171 3171 3171 3171 3171 3171 3171 3170 3170 3170
3191 3191 3191 3191 3190 3190 3189 3189 3189 3188 3188 3188 3187 3187 3187 3186 3186 3186 3186 3186 3186 3186 3186 3185 3185 3185 3185 3185 3185 3184 3184 3184 3184 3184 3184 3184 3184 3183 3183 3183 3183 3182 3182 3182 3182 3182 3181 3181 3181 3181 3181 3181 3181 3181 3180 3180 3180 3180 3179 3179 3179 3178 3178 3178 3177 3177 3177 3177 3176 3176 3176 3175 3175 3175 3175 3175 3174 3174 3174 3173 3173 3173 3173 3173 3172 3172 3173 3173 3173 3173 3171 3171 3171 3171 3171 3171 3171 3171 3171 3171 3170 3170 3170
3192 3192 3191 3191 3191 3191 3190 3190 3190 3189 3189 3188 3188 3188 3188 3188 3187 3187 3187 3187 3186 3186 3186 3186 3186 3186 3186 3185 3185 3185 3185 3184 3184 3184 3184 3184 3184 3184 3184 3183 3183 3183 3182 3182 3182 3182 3182 3181 3181 3181 3181 3181 3181 3180 3180 3180 3180 3179 3179 3179 3178 3178 3177 3177 3177 3177 3176 3176 3176 3176 3175 3175 3175 3174 3174 3174 3174 3173 3173 3172 3172 3172 3172 3172 3172 3172 3172 3171 3172 3172 3171 3171 3170 3170 3170 3170 3170 3170 3170 3170 3170 3170 3169
3192 3192 3192 3192 3191 3191 3191 3191 3190 3190 3190 3190 3189 3189 3189 3189 3188 3188 3188 3188 3187 3187 3187 3187 3186 3186 3186 3186 3186 3185 3185 3185 3185 3185 3184 3184 3184 3184 3184 3183 3183 3183 3183 3182 3182 3182 3182 3182 3181 3181 3181 3181 3181 3180 3180 3180 3179 3179 3179 3178 3178 3177 3177 3177 3176 3176 3176 3176 3176 3175 3175 3175 3174 3174 3174 3173 3173 3173 3172 3172 3171 3171 3171 3171 3171 3171 3171 3171 3171 3171 3171 3170 3170 3170 3169 3169 3169 3169 3169 3169 3169 3169 3169
3193 3193 3192 3192 3192 3192 3191 3191 3191 3191 3191 3190 3190 3190 3189 3189 3189 3189 3189 3188 3188 3188 3188 3187 3187 3187 3186 3186 3186 3186 3186 3185 3185 3185 3185 3185 3184 3184 3184 3184 3183 3183 3183 3183 3182 3182 3182 3182 3182 3181 3181 3181 3181 3180 3180 3179 3179 3179 3178 3178 3178 3177 3177 3177 3176 3176 3176 3176 3175 3175 3175 3174 3174 3173 3173 3173 3173 3172 3172 3171 3171 3171 3171 3171 3171 3170 3170 3170 3170 3170 3170 3170 3169 3169 3169 3168 3168 3168 3168 3168 3169 3169 3169
3193 3193 3193 3193 3192 3192 3192 3192 3191 3191 3191 3191 3191 3191 3190 3190 3190 3190 3189 3189 3189 3188 3188 3188 3188 3187 3187 3187 3186 3186 3186 3186 3186 3185 3185 3185 3185 3184 3184 3184 3184 3183 3183 3183 3183 3182 3182 3182 3182 3181 3181 3181 3181 3180 3180 3179 3179 3178 3178 3178 3177 3177 3177 3176 3176 3176 3176 3176 3175 3175 3174 3174 3173 3173 3173 3172 3172 3172 3171 3171 3171 3170 3170 3170 3170 3170 3169 3169 3170 3170 3169 3169 3169 3169 3168 3168 3167 3167 3167 3168 3168 3168 3168
3194 3193 3193 3193 3193 3192 3192 3192 3192 3191 3191 3191 3191 3191 3191 3191 3191 3190 3190 3190 3189 3189 3189 3188 3188 3188 3187 3187 3187 3187 3186 3186 3186 3186 3185 3185 3185 3185 3184 3184 3184 3184 3183 3183 3183 3183 3182 3182 3182 3181 3181 3181 3181 3180 3180 3179 3179 3178 3178 3178 3177 3177 3176 3176 3176 3176 3176 3175 3175 3174 3174 3173 3173 3172 3172 3172 3171 3171 3171 3171 3170 3170 3170 3169 3169 3169 3169 3169 3169 3169 3168 3168 3168 3168 3168 3167 3167 3167 3166 3167 3167 3167 3167
3194 3194 3193 3193 3193 3193 3192 3192 3192 3192 3192 3191 3191 3191 3191 3191 3191 3191 3190 3190 3190 3190 3189 3189 3189 3188 3188 3187 3187 3187 3186 3186 3186 3186 3186 3185 3185 3185 3184 3184 3184 3184 3184 3183 3183 3183 3182 3182 3182 3181 3181 3181 3180 3180 3180 3179 3179 3178 3178 3177 3177 3177 3176 3176 3176 3175 3175 3175 3174 3174 3173 3173 3172 3172 3172 3171 3171 3171 3170 3170 3170 3169 3169 3169 3168 3168 3168 3168 3168 3168 3167 3167 3167 3167 3167 3167 3167 3166 3166 3166 3166 3166 3166
3194 3194 3193 3193 3193 3193 3193 3192 3192 3192 3192 3192 3191 3191 3191 3191 3191 3191 3191 3190 3190 3190 3190 3189 3189 3188 3188 3188 3187 3187 3187 3186 3186 3186 3186 3185 3185 3185 3185 3184 3184 3184 3184 3183 3183 3183 3182 3182 3182 3181 3181 3181 3180 3180 3179 3179 3179 3178 3178 3177 3177 3176 3176 3176 3175 3175 3174 3174 3174 3173 3173 3172 3172 3172 3171 3171 3171 3170 3170 3170 3169 3169 3169 3168 3168 3168 3167 3167 3167 3166 3166 3166 3166 3166 3166 3166 3166 3166 3166 3166 3165 3165 3165
3194 3194 3194 3193 3193 3193 3193 3193 3192 3192 3192 3192 3192 3191 3191 3191 3191 3191 3191 3190 3190 3190 3190 3189 3189 3189 3188 3188 3187 3187 3187 3186 3186 3186 3186 3185 3185 3185 3185 3184 3184 3184 3184 3183 3183 3183 3182 3182 3182 3181 3181 3181 3180 3180 3179 3179 3178 3178 3177 3177 3176 3176 3176 3175 3175 3174 3174 3173 3173 3172 3172 3172 3172 3171 3171 3170 3170 3170 3170 3169 3169 3168 3168 3168 3167 3167 3167 3166 3166 3166 3166 3166 3165 3165 3165 3165 3165 3165 3165 3165 3165 3164 3164
3194 3194 3193 3193 3193 3193 3193 3193 3192 3192 3192 3192 3192 3191 3191 3191 3191 3191 3190 3190 3190 3190 3190 3189 3189 3189 3188 3188 3187 3187 3187 3186 3186 3186 3186 3185 3185 3185 3185 3184 3184 3184 3183 3183 3183 3182 3182 3182 3181 3181 3181 3180 3180 3179 3179 3178 3178 3177 3177 3176 3176 3176 3175 3175 3174 3174 3173 3173 3172 3172 3171 3171 3171 3171 3170 3170 3169 3169 3169 3169 3168 3168 3167 3167 3166 3166 3166 3166 3166 3165 3165 3165 3165 3164 3164 3164 3164 3164 3164 3164 3164 3164 3163
3194 3193 3193 3193 3193 3193 3193 3193 3193 3192 3192 3192 3192 3191 3191 3191 3191 3191 3190 3190 3190 3190 3189 3189 3189 3188 3188 3188 3187 3187 3187 3186 3186 3186 3186 3185 3185 3185 3184 3184 3184 3184 3183 3183 3183 3182 3182 3181 3181 3181 3180 3180 3179 3179 3178 3178 3177 3177 3176 3176 3176 3175 3174 3174 3173 3173 3173 3172 3171 3171 3171 3171 3171 3170 3170 3169 3169 3168 3168 3168 3168 3167 3167 3166 3166 3166 3165 3165 3165 3165 3164 3164 3164 3164 3163 3163 3163 3163 3163 3163 3163 3163 3163
3193 3193 3193 3193 3193 3193 3193 3193 3192 3192 3192 3192 3192 3191 3191 3191 3191 3191 3190 3190 3190 3189 3189 3189 3188 3188 3188 3187 3187 3187 3186 3186 3186 3186 3185 3185 3185 3184 3184 3184 3184 3183 3183 3183 3182 3182 3182 3181 3181 3180 3180 3179 3179 3178 3178 3177 3177 3176 3176 3175 3175 3174 3174 3173 3173 3172 3172 3171 3171 3170 3170 3170 3170 3169 3169 3168 3168 3168 3167 3167 3167 3167 3166 3166 3166 3165 3165 3164 3164 3164 3164 3163 3163 3163 3163 3163 3163 3163 3163 3163 3163 3162 3162
3193 3193 3193 3193 3193 3192 3192 3192 3192 3192 3192 3192 3192 3191 3191 3191 3191 3190 3190 3190 3190 3189 3189 3188 3188 3188 3187 3187 3187 3187 3186 3186 3186 3186 3185 3185 3185 3184 3184 3184 3183 3183 3183 3182 3182 3182 3181 3181 3180 3180 3179 3179 3178 3178 3177 3177 3176 3176 3175 3175 3174 3174 3173 3173 3172 3172 3172 3171 3171 3170 3169 3170 3169 3168 3168 3168 3167 3167 3166 3166 3166 3166 3166 3166 3165 3165 3164 3164 3163 3163 3163 3163 3162 3162 3162 3162 3162 3162 3162 3162 3162 3162 3162
3193 3193 3193 3193 3192 3192 3192 3192 3192 3192 3192 3192 3191 3191 3191 3191 3190 3190 3190 3190 3189 3189 3189 3188 3188 3187 3187 3187 3186 3186 3186 3186 3186 3185 3185 3185 3184 3184 3184 3183 3183 3182 3182 3182 3181 3181 3181 3180 3180 3179 3179 3178 3178 3177 3177 3176 3176 3175 3175 3174 3174 3173 3173 3172 3172 3172 3171 3171 3170 3169 3169 3169 3168 3168 3168 3167 3166 3166 3166 3166 3165 3165 3165 3165 3164 3164 3164 3163 3163 3162 3162 3162 3162 3161 3161 3161 3161 3161 3161 3161 3161 3161 3161
3192 3192 3192 3192 3192 3192 3192 3192 3192 3191 3191 3191 3191 3191 3191 3190 3190 3190 3189 3189 3189 3189 3188 3188 3187 3187 3187 3186 3186 3186 3186 3186 3185 3185 3184 3184 3184 3183 3183 3183 3182 3182 3182 3181 3181 3181 3180 3180 3179 3179 3178 3178 3177 3177 3176 3176 3175 3175 3174 3174 3173 3173 3172 3172 3171 3171 3171 3170 3170 3169 3169 3168 3168 3168 3167 3167 3166 3166 3165 3165 3165 3164 3164 3164 3164 3163 3163 3163 3162 3162 3162 3161 3161 3161 3161 3161 3161 3161 3161 3161 3161 3161 3161
3192 3192 3192 3192 3192 3191 3191 3191 3191 3191 3191 3191 3191 3191 3191 3190 3190 3189 3189 3189 3189 3188 3188 3188 3187 3187 3186 3186 3186 3186 3185 3185 3185 3185 3184 3184 3183 3183 3183 3182 3182 3182 3181 3181 3181 3180 3180 3179 3179 3178 3177 3177 3176 3176 3176 3175 3175 3174 3174 3173 3173 3172 3172 3171 3171 3171 3170 3170 3169 3169 3168 3168 3167 3167 3167 3166 3166 3165 3165 3165 3164 3164 3164 3163 3163 3163 3163 3162 3162 3162 3161 3161 3161 3161 3161 3161 3161 3161 3160 3160 3160 3160 3160
3191 3191 3191 3191 3191 3191 3191 3191 3191 3191 3191 3191 3191 3190 3190 3190 3189 3189 3189 3188 3188 3188 3187 3187 3187 3186 3186 3186 3186 3185 3185 3185 3185 3184 3184 3183 3183 3182 3182 3182 3181 3181 3181 3180 3180 3180 3179 3179 3178 3177 3177 3176 3176 3176 3175 3175 3174 3174 3173 3173 3172 3172 3171 3171 3171 3170 3169 3169 3169 3168 3168 3167 3167 3166 3166 3166 3165 3165 3164 3164 3164 3163 3163 3163 3162 3162 3162 3162 3162 3161 3161 3161 3161 3161 3160 3160 3160 3160 3160 3160 3160 3160 3160
3191 3191 3191 3191 3191 3191 3190 3190 3190 3190 3190 3190 3190 3190 3190 3189 3189 3189 3188 3188 3188 3187 3187 3187 3186 3186 3186 3186 3185 3185 3185 3184 3184 3184 3183 3183 3183 3182 3182 3181 3181 3181 3180 3180 3179 3179 3178 3178 3177 3177 3176 3176 3175 3175 3174 3174 3173 3173 3172 3172 3172 3171 3171 3171 3170 3170 3169 3168 3168 3167 3167 3167 3166 3166 3166 3165 3165 3164 3164 3163 3163 3163 3162 3162 3162 3162 3161 3161 3161 3161 3161 3161 3160 3160 3160 3160 3160 3160 3160 3160 3160 3160 3159
3191 3190 3190 3190 3190 3190 3190 3190 3189 3189 3189 3189 3189 3189 3189 3189 3188 3188 3188 3187 3187 3187 3186 3186 3186 3186 3186 3185 3185 3185 3184 3184 3183 3183 3183 3182 3182 3182 3181 3181 3180 3180 3180 3179 3179 3178 3178 3177 3177 3176 3176 3175 3175 3174 3174 3173 3173 3172 3172 3171 3171 3171 3170 3170 3170 3169 3169 3168 3167 3167 3166 3166 3166 3165 3165 3165 3164 3164 3163 3163 3163 3162 3162 3161 3161 3161 3161 3161 3161 3161 3161 3160 3160 3160 3160 3160 3159 3159 3159 3159 3159 3159 3159
3190 3190 3190 3190 3189 3189 3189 3189 3189 3188 3188 3188 3188 3188 3188 3188 3188 3187 3187 3187 3186 3186 3186 3186 3186 3186 3185 3185 3184 3184 3184 3183 3183 3183 3182 3182 3181 3181 3181 3180 3180 3179 3179 3178 3178 3177 3177 3176 3176 3176 3175 3175 3174 3174 3173 3172 3172 3171 3171 3171 3171 3170 3170 3169 3169 3169 3168 3168 3167 3166 3166 3166 3165 3165 3165 3164 3164 3163 3163 3163 3162 3162 3161 3161 3161 3161 3161 3161 3160 3160 3160 3160 3160 3160 3159 3159 3159 3159 3159 3159 3159 3159 3158
3189 3189 3189 3189 3189 3189 3189 3188 3188 3188 3187 3187 3187 3187 3188 3187 3187 3187 3186 3186 3186 3186 3185 3185 3185 3185 3185 3184 3184 3183 3183 3183 3182 3182 3181 3181 3181 3180 3180 3180 3179 3179 3178 3178 3177 3177 3176 3176 3175 3175 3174 3174 3173 3173 3172 3172 3171 3171 3170 3170 3170 3169 3169 3169 3168 3168 3167 3167 3166 3166 3166 3165 3165 3165 3164 3164 3163 3163 3162 3162 3162 3161 3161 3161 3160 3160 3160 3160 3160 3160 3160 3159 3159 3159 3159 3159 3158 3158 3158 3158 3158 3158 3158
3188 3188 3188 3188 3188 3188 3188 3187 3187 3187 3187 3186 3186 3186 3186 3186 3186 3186 3186 3186 3185 3185 3185 3184 3184 3184 3184 3183 3183 3183 3182 3182 3181 3181 3181 3181 3180 3180 3179 3179 3178 3178 3177 3177 3176 3176 3176 3175 3175 3174 3174 3173 3173 3172 3171 3171 3171 3170 3170 3169 3169 3169 3168 3168 3168 3167 3167 3166 3166 3166 3165 3165 3164 3164 3164 3163 3163 3162 3162 3162 3161 3161 3161 3160 3160 3160 3160 3159 3159 3159 3159 3159 3159 3158 3158 3158 3158 3158 3158 3157 3157 3157 3157
3187 3187 3187 3187 3187 3187 3187 3187 3186 3186 3186 3186 3186 3186 3186 3186 3186 3185 3185 3185 3184 3184 3184 3184 3183 3183 3183 3183 3182 3182 3181 3181 3181 3180 3180 3180 3179 3179 3178 3178 3177 3177 3176 3176 3176 3175 3175 3174 3174 3173 3173 3172 3172 3171 3171 3170 3170 3169 3169 3169 3168 3168 3168 3167 3167 3167 3166 3166 3166 3165 3165 3164 3164 3164 3163 3163 3162 3162 3162 3161 3161 3161 3160 3160 3160 3159 3159 3159 3159 3159 3158 3158 3158 3158 3158 3157 3157 3157 3157 3157 3157 3156 3156
3186 3186 3186 3186 3186 3186 3186 3186 3186 3185 3185 3185 3184 3184 3185 3185 3185 3184 3184 3184 3184 3183 3183 3183 3182 3182 3182 3182 3181 3181 3181 3180 3180 3180 3179 3179 3178 3178 3177 3177 3176 3176 3176 3175 3175 3174 3174 3173 3173 3172 3172 3171 3171 3171 3170 3169 3169 3169 3168 3168 3168 3167 3167 3167 3166 3166 3166 3166 3165 3165 3164 3164 3163 3163 3163 3162 3162 3162 3161 3161 3161 3160 3160 3160 3159 3159 3159 3158 3158 3158 3158 3158 3157 3157 3157 3157 3156 3156 3156 3156 3156 3156 3156
3186 3186 3185 3185 3185 3185 3185 3185 3185 3184 3184 3184 3183 3183 3183 3183 3183 3183 3183 3183 3183 3182 3182 3182 3182 3181 3181 3181 3181 3180 3180 3179 3179 3179 3178 3178 3177 3177 3177 3176 3176 3175 3175 3174 3174 3173 3173 3172 3172 3171 3171 3171 3170 3170 3169 3169 3168 3168 3167 3167 3167 3167 3166 3166 3166 3166 3165 3165 3165 3164 3164 3163 3163 3163 3162 3162 3162 3161 3161 3161 3160 3160 3160 3159 3159 3159 3158 3158 3158 3157 3157 3157 3157 3156 3156 3156 3156 3156 3156 3156 3155 3155 3155
3184 3184 3184 3184 3184 3184 3184 3184 3184 3183 3183 3183 3182 3182 3182 3182 3182 3182 3182 3182 3182 3181 3181 3181 3181 3181 3180 3180 3180 3179 3179 3179 3178 3178 3177 3177 3176 3176 3176 3175 3175 3174 3174 3173 3173 3172 3172 3171 3171 3171 3170 3170 3169 3169 3168 3168 3167 3167 3167 3166 3166 3166 3166 3166 3165 3165 3165 3164 3164 3164 3163 3163 3163 3162 3162 3161 3161 3161 3161 3160 3160 3160 3159 3159 3159 3158 3158 3158 3157 3157 3157 3156 3156 3156 3156 3155 3155 3155 3155 3155 3155 3155 3155
3183 3183 3183 3183 3183 3183 3183 3182 3182 3182 3182 3182 3181 3181 3181 3181 3181 3181 3181 3181 3181 3181 3180 3180 3180 3180 3179 3179 3179 3178 3178 3178 3177 3177 3176 3176 3176 3175 3175 3175 3174 3173 3173 3172 3172 3171 3171 3171 3170 3170 3169 3169 3168 3168 3167 3167 3166 3166 3166 3166 3166 3165 3165 3165 3165 3164 3164 3164 3164 3163 3163 3163 3162 3162 3161 3161 3161 3161 3160 3160 3159 3159 3159 3158 3158 3158 3157 3157 3157 3156 3156 3156 3156 3155 3155 3155 3155 3154 3154 3154 3154 3154 3154
3182 3182 3182 3182 3181 3181 3181 3181 3181 3181 3181 3181 3180 3180 3180 3180 3180 3180 3180 3180 3180 3180 3179 3179 3179 3179 3178 3178 3178 3177 3177 3177 3176 3176 3176 3175 3175 3174 3174 3174 3173 3172 3172 3171 3171 3171 3170 3170 3169 3169 3168 3168 3167 3167 3166 3166 3166 3166 3165 3165 3165 3165 3165 3164 3164 3164 3163 3163 3163 3163 3162 3162 3162 3161 3161 3161 3160 3160 3160 3159 3159 3159 3158 3158 3158 3157 3157 3157 3156 3156 3156 3156 3155 3155 3155 3154 3154 3154 3154 3153 3153 3153 3153
3181 3181 3181 3181 3181 3180 3180 3180 3180 3180 3180 3179 3179 3179 3179 3179 3179 3179 3179 3179 3179 3178 3178 3178 3178 3178 3177 3177 3177 3176 3176 3176 3176 3175 3175 3174 3174 3173 3173 3172 3172 3171 3171 3171 3170 3170 3169 3169 3168 3168 3167 3167 3166 3166 3166 3166 3165 3165 3165 3164 3164 3164 3164 3164 3163 3163 3163 3162 3162 3162 3162 3161 3161 3161 3160 3160 3160 3159 3159 3159 3158 3158 3158 3157 3157 3157 3156 3156 3156 3156 3155 3155 3155 3154 3154 3154 3153 3153 3153 3153 3152 3152 3152
3180 3180 3179 3179 3179 3179 3179 3179 3179 3179 3178 3178 3178 3178 3177 3177 3177 3177 3177 3177 3177 3177 3177 3177 3177 3176 3176 3176 3176 3175 3175 3175 3175 3174 3174 3173 3173 3172 3172 3171 3171 3171 3170 3170 3169 3169 3168 3168 3167 3167 3167 3166 3166 3165 3165 3165 3164 3164 3164 3164 3163 3163 3163 3163 3163 3162 3162 3162 3161 3161 3161 3161 3160 3160 3160 3159 3159 3159 3158 3158 3158 3157 3157 3156 3156 3156 3156 3156 3155 3155 3155 3155 3154 3154 3154 3153 3153 3152 3152 3152 3152 3151 3151
3178 3178 3178 3178 3178 3178 3177 3177 3177 3177 3177 3177 3176 3176 3176 3176 3176 3176 3176 3176 3176 3176 3176 3176 3176 3175 3175 3175 3175 3174 3174 3174 3173 3173 3173 3172 3172 3171 3171 3171 3170 3170 3169 3169 3168 3168 3167 3167 3167 3166 3166 3165 3165 3165 3164 3164 3164 3163 3163 3163 3162 3162 3162 3162 3162 3161 3161 3161 3161 3161 3160 3160 3159 3159 3159 3158 3158 3158 3157 3157 3157 3156 3156 3156 3156 3155 3155 3155 3155 3155 3154 3154 3154 3153 3153 3153 3152 3152 3151 3151 3151 3151 3150
3176 3176 3176 3176 3176 3176 3176 3176 3176 3176 3176 3176 3175 3175 3175 3175 3175 3175 3175 3175 3175 3175 3175 3174 3174 3174 3174 3174 3173 3173 3173 3172 3172 3172 3172 3171 3171 3170 3170 3170 3169 3169 3168 3168 3167 3167 3166 3166 3166 3166 3165 3165 3164 3164 3163 3163 3163 3162 3162 3162 3161 3161 3161 3161 3161 3161 3161 3160 3160 3160 3159 3159 3159 3158 3158 3158 3157 3157 3157 3156 3156 3156 3155 3155 3155 3154 3154 3154 3154 3154 3153 3153 3153 3153 3152 3152 3151 3151 3151 3151 3150 3150 3150
3175 3175 3175 3175 3175 3175 3175 3175 3174 3174 3174 3174 3174 3174 3173 3173 3173 3173 3173 3173 3173 3173 3173 3173 3173 3173 3173 3172 3172 3172 3171 3171 3171 3171 3171 3170 3170 3169 3169 3168 3168 3167 3167 3166 3166 3166 3166 3165 3165 3165 3164 3164 3163 3163 3162 3162 3162 3161 3161 3161 3161 3161 3160 3160 3160 3160 3160 3159 3159 3159 3158 3158 3158 3157 3157 3157 3156 3156 3156 3155 3155 3155 3154 3154 3154 3153 3153 3153 3153 3152 3152 3152 3152 3152 3151 3151 3151 3150 3150 3150 3149 3149 3148
3173 3173 3173 3173 3173 3173 3173 3173 3173 3173 3173 3173 3172 3172 3172 3172 3172 3172 3172 3172 3172 3172 3172 3172 3172 3171 3171 3171 3171 3171 3171 3170 3170 3170 3169 3169 3168 3168 3168 3167 3167 3166 3166 3166 3165 3165 3165 3164 3164 3163 3163 3163 3162 3162 3161 3161 3161 3161 3160 3160 3160 3160 3159 3159 3159 3159 3159 3158 3158 3158 3157 3157 3157 3156 3156 3156 3156 3155 3155 3154 3154 3154 3153 3153 3153 3152 3152 3152 3151 3151 3151 3151 3151 3151 3151 3150 3150 3150 3149 3149 3148 3148 3147
3171 3171 3172 3172 3171 3171 3171 3171 3171 3171 3171 3171 3171 3171 3171 3171 3170 3170 3170 3170 3171 3171 3170 3170 3170 3170 3170 3170 3170 3170 3169 3169 3169 3168 3168 3168 3167 3167 3166 3166 3166 3165 3165 3164 3164 3164 3163 3163 3163 3162 3162 3162 3161 3161 3160 3160 3160 3160 3159 3159 3159 3159 3158 3158 3158 3158 3158 3157 3157 3157 3157 3156 3156 3156 3155 3155 3155 3154 3154 3153 3153 3153 3152 3152 3152 3151 3151 3151 3151 3150 3150 3150 3150 3149 3149 3149 3149 3148 3148 3148 3147 3147 3146
3170 3170 3170 3170 3170 3170 3170 3170 3170 3170 3170 3170 3169 3169 3169 3169 3169 3169 3169 3169 3169 3169 3169 3169 3169 3169 3169 3168 3168 3168 3168 3168 3167 3167 3167 3166 3166 3166 3165 3165 3164 3164 3164 3163 3163 3162 3162 3162 3162 3161 3161 3161 3160 3160 3159 3159 3159 3158 3158 3158 3158 3158 3157 3157 3157 3157 3157 3156 3156 3156 3156 3155 3155 3155 3154 3154 3154 3153 3153 3152 3152 3152 3151 3151 3151 3151 3150 3150 3150 3149 3149 3149 3148 3148 3148 3148 3147 3147 3147 3147 3146 3146 3146
3168 3168 3168 3168 3168 3168 3168 3168 3168 3168 3168 3168 3168 3168 3168 3167 3167 3167 3167 3167 3167 3167 3167 3167 3167 3167 3167 3167 3167 3167 3166 3166 3166 3166 3166 3165 3165 3165 3164 3164 3163 3163 3162 3162 3162 3161 3161 3161 3161 3160 3160 3160 3159 3159 3158 3158 3158 3157 3157 3157 3157 3156 3156 3156 3156 3156 3156 3156 3155 3155 3155 3154 3154 3154 3153 3153 3153 3152 3152 3151 3151 3151 3151 3150 3150 3150 3149 3149 3149 3148 3148 3148 3147 3147 3147 3146 3146 3146 3146 3146 3145 3145 3144
3166 3166 3167 3167 3167 3166 3166 3166 3166 3166 3166 3166 3166 3166 3166 3166 3166 3166 3166 3166 3166 3166 3166 3166 3166 3166 3166 3166 3166 3165 3165 3165 3165 3165 3164 3164 3164 3163 3163 3162 3162 3162 3161 3161 3161 3160 3160 3160 3159 3159 3159 3158 3158 3158 3157 3157 3156 3156 3156 3156 3156 3156 3155 3155 3155 3155 3155 3155 3154 3154 3154 3153 3153 3153 3152 3152 3151 3151 3151 3151 3150 3150 3150 3149 3149 3148 3148 3148 3147 3147 3147 3146 3146 3146 3146 3145 3145 3145 3144 3144 3144 3143 3143
3165 3165 3165 3165 3165 3165 3165 3165 3165 3165 3165 3165 3165 3165 3164 3164 3164 3164 3164 3164 3164 3164 3164 3164 3164 3164 3164 3164 3164 3164 3164 3164 3163 3163 3163 3163 3162 3162 3162 3161 3161 3161 3160 3160 3160 3159 3159 3158 3158 3158 3157 3157 3157 3156 3156 3156 3156 3155 3155 3155 3154 3154 3154 3154 3154 3154 3154 3153 3153 3153 3152 3152 3152 3151 3151 3151 3151 3150 3150 3149 3149 3149 3148 3148 3148 3147 3147 3147 3146 3146 3146 3145 3145 3145 3144 3144 3144 3143 3143 3143 3142 3142 3142
3163 3163 3163 3163 3163 3163 3163 3163 3163 3163 3163 3163 3163 3163 3163 3163 3162 3162 3162 3162 3162 3162 3163 3163 3163 3163 3163 3162 3162 3162 3162 3162 3162 3162 3161 3161 3161 3161 3161 3160 3160 3159 3159 3159 3158 3158 3158 3157 3157 3156 3156 3156 3156 3155 3155 3155 3154 3154 3154 3153 3153 3153 3153 3153 3153 3152 3152 3152 3152 3152 3151 3151 3151 3150 3150 3150 3149 3149 3148 3148 3148 3147 3147 3147 3146 3146 3146 3146 3145 3145 3144 3144 3144 3143 3143 3142 3142 3142 3141 3141 3141 3141 3140
3161 3161 3161 3161 3161 3161 3161 3161 3161 3161 3161 3161 3161 3161 3161 3161 3161 3161 3161 3161 3161 3161 3161 3161 3161 3161 3161 3161 3161 3161 3161 3161 3161 3160 3160 3160 3160 3160 3159 3159 3158 3158 3158 3157 3157 3157 3156 3156 3156 3155 3155 3155 3154 3154 3154 3153 3153 3153 3152 3152 3152 3152 3152 3151 3151 3151 3151 3151 3151 3151 3150 3150 3150 3149 3149 3148 3148 3148 3147 3147 3146 3146 3146 3146 3145 3145 3145 3144 3144 3143 3143 3143 3142 3142 3141 3141 3141 3141 3140 3140 3139 3139 3139
3159 3160 3160 3160 3160 3160 3160 3160 3159 3159 3159 3159 3159 3159 3159 3159 3159 3159 3159 3159 3159 3159 3160 3160 3160 3160 3160 3160 3159 3159 3159 3159 3159 3159 3159 3159 3158 3158 3158 3157 3157 3157 3156 3156 3156 3155 3155 3155 3154 3154 3154 3153 3153 3153 3152 3152 3152 3151 3151 3151 3151 3151 3150 3150 3150 3150 3150 3150 3149 3149 3149 3149 3148 3148 3147 3147 3147 3146 3146 3146 3145 3145 3145 3144 3144 3144 3143 3143 3142 3142 3141 3141 3141 3140 3140 3140 3139 3139 3139 3138 3138 3137 3137
3157 3158 3158 3158 3158 3158 3158 3158 3157 3157 3157 3157 3157 3157 3157 3157 3157 3157 3157 3157 3157 3158 3158 3158 3158 3158 3158 3158 3158 3157 3157 3157 3157 3157 3157 3157 3157 3156 3156 3156 3156 3156 3155 3155 3154 3154 3154 3153 3153 3153 3152 3152 3151 3151 3151 3151 3150 3150 3150 3149 3149 3149 3149 3149 3149 3149 3148 3148 3148 3148 3147 3147 3147 3146 3146 3146 3146 3145 3145 3144 3144 3144 3143 3143 3142 3142 3142 3141 3141 3141 3140 3140 3139 3139 3138 3138 3138 3137 3137 3136 3136 3136 3135
3156 3156 3156 3156 3156 3156 3156 3156 3156 3155 3155 3155 3156 3156 3156 3156 3156 3156 3156 3156 3156 3156 3156 3156 3156 3156 3156 3156 3156 3156 3156 3156 3156 3156 3155 3155 3155 3155 3155 3155 3154 3154 3154 3153 3153 3152 3152 3152 3151 3151 3151 3151 3150 3150 3150 3149 3149 3148 3148 3148 3148 3147 3147 3147 3147 3147 3147 3147 3147 3146 3146 3146 3146 3145 3145 3144 3144 3144 3143 3143 3142 3142 3142 3141 3141 3141 3140 3140 3139 3139 3138 3138 3138 3137 3137 3136 3136 3136 3135 3135 3135 3134 3134
3154 3154 3154 3154 3154 3154 3154 3154 3154 3153 3153 3153 3154 3154 3154 3154 3154 3154 3154 3154 3154 3154 3154 3154 3154 3154 3154 3154 3154 3154 3154 3154 3154 3154 3154 3154 3153 3153 3153 3153 3153 3153 3152 3152 3151 3151 3151 3151 3150 3150 3149 3149 3149 3148 3148 3148 3147 3147 3146 3146 3146 3146 3146 3146 3146 3146 3146 3145 3145 3145 3145 3145 3144 3144 3143 3143 3142 3142 3142 3141 3141 3141 3140 3140 3139 3139 3138 3138 3137 3137 3136 3136 3136 3136 3135 3135 3134 3134 3134 3133 3133 3132 3132
3151 3152 3152 3152 3152 3152 3152 3152 3152 3151 3151 3151 3152 3152 3152 3152 3152 3152 3152 3152 3152 3152 3152 3152 3152 3152 3152 3152 3152 3152 3153 3153 3153 3152 3152 3152 3152 3151 3151 3151 3151 3151 3151 3150 3150 3150 3149 3149 3149 3148 3148 3147 3147 3147 3146 3146 3146 3145 3145 3145 3145 3144 3144 3144 3144 3144 3144 3144 3144 3143 3143 3143 3143 3142 3142 3141 3141 3141 3140 3140 3139 3139 3138 3138 3138 3137 3137 3136 3136 3135 3135 3134 3134 3134 3133 3133 3132 3132 3132 3131 3131 3131 3130
3150 3150 3150 3150 3150 3150 3150 3150 3150 3150 3150 3150 3150 3150 3150 3150 3150 3150 3150 3150 3150 3150 3150 3151 3151 3151 3151 3151 3151 3151 3151 3151 3151 3151 3150 3150 3150 3150 3150 3150 3149 3149 3149 3149 3148 3148 3148 3147 3147 3147 3146 3146 3146 3145 3145 3144 3144 3144 3143 3143 3143 3142 3142 3142 3142 3142 3142 3142 3142 3142 3141 3141 3141 3141 3140 3140 3139 3139 3138 3138 3138 3137 3137 3136 3136 3136 3135 3135 3134 3134 3133 3133 3132 3132 3131 3131 3131 3130 3130 3130 3129 3129 3128
3147 3147 3148 3148 3148 3148 3148 3148 3148 3147 3147 3148 3148 3148 3148 3148 3148 3148 3148 3148 3148 3148 3148 3148 3149 3149 3149 3149 3149 3149 3149 3149 3149 3149 3148 3148 3148 3148 3148 3148 3147 3147 3147 3147 3147 3146 3146 3146 3146 3145 3145 3144 3144 3143 3143 3143 3142 3142 3142 3141 3141 3141 3141 3140 3140 3140 3140 3140 3140 3140 3140 3140 3139 3139 3139 3138 3138 3137 3137 3136 3136 3135 3135 3135 3134 3134 3133 3133 3132 3132 3131 3131 3130 3130 3129 3129 3128 3128 3128 3127 3127 3127 3126
3145 3145 3146 3146 3146 3146 3146 3146 3146 3146 3146 3146 3146 3146 3146 3146 3146 3146 3146 3146 3146 3146 3146 3146 3146 3147 3147 3147 3147 3147 3147 3147 3147 3147 3146 3147 3147 3146 3146 3146 3146 3146 3146 3145 3145 3145 3145 3144 3144 3144 3143 3143 3142 3142 3141 3141 3141 3140 3140 3140 3139 3139 3139 3139 3138 3138 3138 3138 3138 3138 3138 3138 3137 3137 3137 3136 3136 3136 3135 3134 3134 3134 3133 3133 3132 3132 3131 3131 3131 3130 3130 3129 3129 3128 3127 3127 3126 3126 3126 3125 3125 3125 3124
3143 3143 3143 3144 3144 3144 3144 3144 3144 3144 3143 3143 3143 3143 3143 3144 3144 3144 3144 3144 3144 3144 3144 3144 3144 3145 3145 3145 3145 3145 3145 3145 3145 3145 3145 3145 3145 3145 3144 3144 3144 3144 3144 3144 3143 3143 3143 3142 3142 3142 3141 3141 3141 3140 3140 3139 3139 3139 3138 3138 3138 3137 3137 3137 3136 3136 3136 3136 3136 3136 3136 3136 3136 3135 3135 3135 3134 3134 3133 3133 3132 3132 3131 3131 3131 3130 3130 3129 3129 3128 3128 3127 3127 3126 3126 3125 3125 3124 3124 3123 3123 3122 3122
3141 3141 3141 3141 3142 3142 3142 3142 3142 3141 3141 3141 3141 3141 3141 3141 3141 3141 3142 3142 3142 3142 3142 3142 3142 3142 3142 3142 3143 3143 3143 3143 3143 3143 3143 3142 3142 3142 3142 3141 3141 3141 3142 3142 3141 3141 3141 3141 3140 3140 3140 3139 3139 3138 3138 3137 3137 3137 3136 3136 3136 3136 3135 3135 3135 3134 3134 3134 3134 3134 3134 3134 3134 3133 3133 3133 3132 3132 3131 3131 3131 3130 3130 3129 3128 3128 3128 3127 3126 3126 3126 3125 3125 3124 3124 3123 3123 3122 3122 3121 3121 3120 3120
3139 3139 3139 3139 3139 3139 3140 3140 3140 3140 3139 3139 3139 3139 3139 3139 3139 3139 3139 3140 3140 3140 3141 3140 3140 3140 3140 3140 3141 3141 3141 3141 3141 3141 3141 3140 3140 3140 3140 3140 3140 3140 3140 3140 3139 3139 3139 3139 3139 3138 3137 3137 3137 3136 3136 3136 3135 3135 3135 3134 3134 3134 3133 3133 3132 3132 3132 3132 3132 3132 3132 3132 3131 3131 3131 3131 3131 3130 3130 3129 3129 3128 3128 3127 3126 3126 3126 3125 3124 3124 3123 3123 3123 3122 3122 3121 3121 3120 3120 3119 3119 3118 3117
3136 3136 3136 3136 3136 3136 3137 3138 3138 3137 3136 3136 3136 3136 3136 3136 3136 3137 3137 3137 3138 3138 3138 3138 3137 3137 3138 3138 3138 3138 3138 3138 3138 3138 3138 3138 3138 3138 3138 3137 3138 3138 3138 3137 3137 3137 3137 3137 3137 3137 3136 3135 3135 3134 3134 3134 3133 3133 3133 3132 3132 3132 3131 3131 3131 3130 3130 3130 3130 3130 3130 3130 3130 3129 3129 3129 3128 3128 3128 3127 3127 3126 3126 3125 3125 3124 3123 3123 3122 3122 3121 3121 3121 3120 3120 3119 3119 3118 3117 3117 3116 3116 3115
3134 3134 3133 3133 3133 3134 3134 3135 3135 3135 3134 3134 3134 3134 3134 3134 3134 3134 3135 3135 3135 3135 3135 3135 3135 3135 3135 3136 3136 3136 3136 3136 3136 3136 3136 3136 3136 3136 3136 3136 3136 3136 3135 3135 3135 3135 3135 3135 3135 3135 3134 3133 3133 3132 3131 3131 3131 3131 3131 3131 3130 3130 3129 3129 3129 3128 3128 3128 3128 3127 3127 3127 3127 3127 3127 3127 3126 3126 3126 3125 3125 3124 3124 3123 3123 3122 3121 3121 3120 3120 3119 3119 3118 3118 3117 3116 3116 3116 3115 3115 3114 3114 3113
3131 3131 3131 3131 3131 3131 3131 3131 3132 3132 3132 3131 3131 3131 3131 3131 3131 3131 3132 3132 3132 3133 3133 3133 3132 3133 3133 3133 3133 3133 3133 3133 3133 3133 3133 3133 3133 3133 3133 3133 3134 3134 3133 3133 3133 3133 3133 3133 3133 3132 3131 3132 3131 3130 3129 3129 3129 3129 3128 3128 3128 3128 3127 3127 3126 3126 3126 3126 3126 3125 3125 3125 3125 3125 3125 3125 3124 3124 3123 3123 3122 3122 3121 3121 3121 3120 3119 3119 3118 3117 3117 3116 3116 3115 3115 3114 3114 3113 3112 3112 3111 3111 3110
3128 3128 3128 3128 3128 3128 3128 3129 3129 3130 3129 3129 3129 3129 3129 3129 3129 3129 3129 3129 3130 3130 3130 3130 3130 3130 3130 3130 3130 3130 3131 3131 3131 3131 3131 3131 3131 3131 3131 3131 3131 3131 3131 3131 3131 3131 3131 3131 3131 3130 3129 3130 3130 3128 3127 3127 3127 3126 3126 3126 3126 3126 3125 3125 3124 3124 3123 3123 3123 3123 3123 3123 3122 3122 3122 3122 3122 3121 3121 3121 3120 3120 3119 3119 3118 3117 3117 3116 3116 3115 3114 3114 3113 3113 3112 3111 3111 3111 3110 3109 3109 3108 3108
3125 3126 3125 3125 3125 3125 3125 3126 3126 3127 3127 3127 3126 3126 3126 3126 3127 3127 3127 3127 3127 3127 3127 3127 3127 3127 3127 3127 3127 3127 3127 3128 3128 3128 3128 3128 3128 3128 3128 3128 3129 3129 3129 3128 3128 3128 3129 3129 3128 3128 3127 3127 3127 3126 3126 3125 3124 3124 3124 3124 3124 3123 3123 3122 3122 3121 3121 3121 3121 3121 3120 3120 3120 3120 3120 3120 3119 3119 3119 3118 3118 3117 3117 3116 3116 3115 3115 3114 3113 3112 3112 3111 3111 3110 3110 3109 3108 3108 3107 3107 3106 3106 3105
3122 3122 3122 3122 3122 3122 3122 3123 3123 3124 3124 3124 3124 3124 3124 3124 3124 3125 3124 3124 3124 3124 3124 3124 3124 3124 3124 3124 3124 3124 3125 3125 3125 3126 3126 3126 3125 3126 3126 3126 3126 3126 3126 3126 3126 3126 3126 3126 3126 3126 3126 3125 3125 3124 3124 3123 3122 3122 3121 3121 3121 3121 3121 3120 3119 3119 3119 3118 3118 3118 3118 3117 3117 3117 3117 3117 3116 3116 3116 3116 3115 3115 3114 3114 3113 3112 3112 3111 3111 3110 3109 3109 3108 3108 3107 3106 3106 3105 3105 3104 3103 3102 3102
3119 3119 3119 3119 3119 3119 3120 3120 3120 3121 3121 3121 3121 3121 3121 3121 3121 3122 3121 3121 3121 3121 3122 3122 3122 3121 3121 3121 3121 3121 3122 3122 3122 3122 3123 3123 3123 3123 3123 3123 3123 3123 3123 3123 3123 3123 3123 3123 3124 3124 3123 3123 3123 3122 3121 3121 3121 3120 3119 3119 3119 3119 3118 3118 3117 3116 3116 3116 3116 3116 3115 3115 3115 3114 3114 3114 3114 3114 3113 3113 3112 3112 3111 3111 3110 3110 3109 3108 3108 3107 3106 3106 3106 3105 3104 3104 3103 3102 3102 3101 3100 3100 3099